[[{"header":{"parameterUnit":"m.s-1","parameterCategory":1,"la1":30.2991,"la2":30.254,"lo1":-89.0895,"lo2":-89.0444,"dy":0.0017,"dx":0.0017,"nx":28,"ny":28,"refTime":"2024-02-24T09:00:00:Z","depth":0,"parameterNumber":2,"parameterNumberName":"U-component_of_WINDS"},"data":[0,0,0,0,0,0,0,0,0,0,0,0,0,0,0,0,0,0,0,0,0,0,0,0,0,0,0,0,0,0,0,0,0,0,0,0,0,0,0,0,0,0,0,0,0,0,0,0,0,0,0,0,0,0,0,0,0,0,4.2879,4.288,0,4.2947,4.2948,4.2949,4.2946,4.2945,4.2944,4.2943,4.3014,4.3017,4.302,0,0,0,0,0,0,0,0,0,0,0,0,0,4.2752,4.2755,4.2879,4.288,4.2881,4.2947,4.2948,4.2949,4.2946,4.2945,4.2944,4.2943,4.3014,4.3017,4.302,0,0,0,0,0,0,0,0,0,0,0,0,0,4.2813,4.2755,4.2879,4.2888,4.2889,4.2947,4.2948,4.2949,4.2946,4.2945,4.2944,4.2942,4.3012,4.3017,4.3021,4.3076,0,0,4.3033,4.3035,0,0,0,0,0,0,0,0,4.2809,4.2817,4.2885,4.2887,4.2889,4.2937,4.293,4.2992,4.2947,4.2925,4.2943,4.2942,4.299,4.2996,4.3012,4.3079,4.3082,4.3034,4.3036,4.3038,4.3039,0,0,0,0,0,0,0,4.2805,4.2814,4.2906,4.2886,4.2889,4.289,4.2897,4.2941,4.2965,4.2926,4.2926,4.2934,4.2991,4.3008,4.3013,4.3083,4.3034,4.3037,4.304,4.3042,4.3206,4.3208,0,0,0,0,0,0,4.2799,4.2811,4.2904,4.2908,4.2845,4.2893,4.2901,4.2923,4.2964,4.2969,4.2936,4.2934,4.3001,4.3009,4.3016,4.3088,4.3038,4.3042,4.3044,4.3204,4.3206,4.3208,0,0,0,0,0,0,4.2796,4.2807,4.2901,4.286,4.2872,4.2897,4.2922,4.2925,4.2942,4.2971,4.2975,4.2949,4.3,4.301,4.3062,4.309,4.3044,4.3048,4.3202,4.3205,4.3207,4.3228,0,0,0,0,0,0,4.2792,4.2806,4.2825,4.286,4.2874,4.2945,4.2923,4.2927,4.2949,4.2948,4.2984,4.2989,4.3,4.3056,4.3066,4.3095,4.3051,4.3199,4.3203,4.3206,4.3225,4.3231,4.3237,0,0,0,0,0,4.2788,4.2827,4.2826,4.2837,4.2899,4.2946,4.2954,4.2966,4.2951,4.2973,4.2992,4.2988,4.3085,4.3061,4.3073,4.3103,4.3198,4.3202,4.3206,4.3223,4.323,4.3236,0,0,0,0,0,0,4.2794,4.2832,4.2831,4.2883,4.2912,4.2946,4.2972,4.2972,4.3006,4.3003,4.3016,4.3025,4.3078,4.3096,4.3069,4.3162,4.314,4.3147,4.3148,4.3156,4.3161,4.3157,4.3055,0,0,0,0,0,4.2801,4.2836,4.2867,4.291,4.2925,4.2946,4.2967,4.2974,4.3004,4.3017,4.3039,4.307,4.3109,4.3133,4.3169,4.3228,4.3238,4.3255,4.326,4.3265,4.3271,4.331,4.3319,4.3222,4.3222,4.3222,0,0,4.2817,4.2842,4.2862,4.2912,4.2935,4.2973,4.2956,4.2995,4.3025,4.3022,4.3074,4.3093,4.3128,4.3186,4.3212,4.3202,4.3301,4.327,4.3274,4.3277,4.3315,4.3324,4.3332,4.3225,4.3224,4.3224,0,0,4.2865,4.2886,4.2926,4.2951,4.2987,4.3002,4.3012,4.3047,4.306,4.3112,4.3113,4.3149,4.3212,4.324,4.3262,4.3327,4.3327,4.3339,4.3369,4.3406,4.3414,4.3421,4.3449,4.3458,4.3344,4.3344,4.3344,0,4.288,4.2935,4.2947,4.2988,4.3013,4.3014,4.3058,4.3081,4.3127,4.3145,4.3132,4.3217,4.324,4.3307,4.3323,4.3339,4.3355,4.3335,4.3412,4.3419,4.3425,4.3452,4.3462,4.3346,4.3346,4.3345,4.3345,0,4.2955,4.2994,4.3022,4.3069,4.3096,4.3138,4.3159,4.3185,4.3191,4.3209,4.3265,4.3294,4.3339,4.3355,4.336,4.3424,4.3418,4.3408,4.3387,4.3436,4.3462,4.3472,4.3348,4.3347,4.3347,4.3347,0,0,4.3005,4.3062,4.3072,4.3096,4.3138,4.317,4.3214,4.3259,4.3284,4.3316,4.3357,4.3413,4.3407,4.3432,4.3441,4.3474,4.353,4.3461,4.3463,4.3476,4.3609,4.3617,4.3629,4.353,4.3532,4.3533,4.3607,0,4.3061,4.3139,4.3154,4.3222,4.3262,4.3267,4.3306,4.3338,4.3357,4.3395,4.3416,4.3458,4.3444,4.346,4.3492,4.3516,4.3557,4.3511,4.3571,4.3572,4.3564,4.3641,4.3649,4.3717,4.3617,4.3618,4.362,0,4.3134,4.3172,4.3245,4.3288,4.3305,4.334,4.3386,4.342,4.3459,4.3471,4.3502,4.3509,4.3559,4.3535,4.3607,4.3575,4.3601,4.3617,4.362,4.3628,4.36,4.3654,4.3739,4.375,4.3635,4.3633,4.3632,0,4.317,4.3238,4.3292,4.3312,4.3362,4.3387,4.341,4.3447,4.3475,4.3515,4.3534,4.3579,4.3604,4.3641,4.3661,4.3641,4.3734,4.371,4.3748,4.3748,4.3768,4.3767,4.3861,4.378,4.378,4.378,4.378,0,4.3231,4.3276,4.3309,4.3343,4.3396,4.3414,4.3467,4.3489,4.3524,4.3564,4.3571,4.3609,4.3632,4.3675,4.3691,4.3752,4.3762,4.3776,4.378,4.3777,4.3775,4.3795,4.3792,4.3783,4.3782,4.3781,4.3781,0,4.3278,4.3301,4.3362,4.3406,4.3419,4.3456,4.3496,4.353,4.3551,4.3602,4.3616,4.3648,4.37,4.3724,4.3786,4.3798,4.3868,4.3867,4.3855,4.3857,4.3896,4.3893,4.4007,4.4026,4.393,4.3931,4.3931,0,4.3316,4.3352,4.3402,4.343,4.3454,4.3497,4.3527,4.3548,4.358,4.363,4.366,4.3712,4.3754,4.3837,4.3867,4.3917,4.392,4.3957,4.3927,4.3925,4.3926,4.3924,4.393,4.3963,4.3964,4.3964,4.3965,0,4.3384,4.3395,4.3437,4.3486,4.3521,4.356,4.3598,4.3621,4.3649,4.3684,4.3737,4.3771,4.3838,4.3891,4.3944,4.3969,4.3974,4.3974,4.3987,4.3984,4.3977,4.3986,4.3873,4.3972,4.3971,4.397,4.397,4.397,4.343,4.3465,4.3507,4.3555,4.3587,4.3624,4.366,4.3687,4.3732,4.3788,4.3798,4.3857,4.39,4.3972,4.4,4.4048,4.404,4.4056,4.4061,4.4065,4.407,4.3968,4.4057,4.4057,4.4057,4.4057,4.4057,0,4.3501,4.3529,4.3574,4.3629,4.3669,4.3669,4.3714,4.3747,4.3798,4.3838,4.3882,4.3946,4.3999,4.4036,4.4091,4.4123,4.4127,4.4137,4.4136,4.4143,4.4072,4.4058,4.4133,4.4133,4.4133,4.4133,4.4133,4.4133,4.3542,4.3602,4.362,4.3698,4.3726,4.3783,4.3809,4.3846,4.3878,4.395,4.3995,4.4019,4.406,4.4119,4.4169,4.4179,4.4201,4.4212,4.4222,4.4155,4.4147,4.414,4.4126,4.4215,4.4215,4.429,4.429,4.4291]},{"header":{"parameterUnit":"m.s-1","parameterCategory":1,"la1":30.2991,"la2":30.254,"lo1":-89.0895,"lo2":-89.0444,"dy":0.0017,"dx":0.0017,"nx":28,"ny":28,"refTime":"2024-02-24T09:00:00:Z","depth":0,"parameterNumber":3,"parameterNumberName":"V-component_of_WINDS"},"data":[0,0,0,0,0,0,0,0,0,0,0,0,0,0,0,0,0,0,0,0,0,0,0,0,0,0,0,0,0,0,0,0,0,0,0,0,0,0,0,0,0,0,0,0,0,0,0,0,0,0,0,0,0,0,0,0,0,0,0.4124,0.4125,0,0.4203,0.4204,0.4205,0.4155,0.4153,0.415,0.4148,0.423,0.4235,0.4239,0,0,0,0,0,0,0,0,0,0,0,0,0,0.3929,0.3933,0.4124,0.4125,0.4126,0.4203,0.4204,0.4205,0.4156,0.4153,0.415,0.4147,0.4229,0.4234,0.4239,0,0,0,0,0,0,0,0,0,0,0,0,0,0.4012,0.3935,0.4123,0.411,0.411,0.4202,0.4204,0.4205,0.4156,0.4153,0.4149,0.4146,0.4227,0.4234,0.424,0.435,0,0,0.426,0.4263,0,0,0,0,0,0,0,0,0.4007,0.4019,0.4111,0.4111,0.4111,0.4165,0.4165,0.4254,0.4157,0.4139,0.4148,0.4144,0.4212,0.4219,0.4242,0.4354,0.4358,0.4261,0.4265,0.4267,0.4269,0,0,0,0,0,0,0,0.4002,0.4015,0.4155,0.4113,0.4113,0.41,0.4108,0.4182,0.4194,0.414,0.4137,0.4146,0.4211,0.4236,0.4243,0.4359,0.4261,0.4266,0.427,0.4273,0.4562,0.4566,0,0,0,0,0,0,0.3997,0.4011,0.4152,0.4157,0.4049,0.4107,0.4115,0.4152,0.4193,0.4196,0.4149,0.4144,0.4226,0.4236,0.4246,0.4375,0.4267,0.4274,0.4277,0.4559,0.4563,0.4567,0,0,0,0,0,0,0.3993,0.401,0.4149,0.4083,0.41,0.4114,0.4155,0.4155,0.4179,0.42,0.4202,0.4172,0.4224,0.4237,0.4324,0.4378,0.4277,0.4282,0.4554,0.456,0.4565,0.4637,0,0,0,0,0,0,0.3987,0.4009,0.4051,0.4084,0.4104,0.4226,0.4158,0.4159,0.4191,0.4184,0.4222,0.4225,0.4222,0.4314,0.4331,0.4385,0.4288,0.4549,0.4557,0.4563,0.463,0.4644,0.4656,0,0,0,0,0,0.3981,0.4069,0.4054,0.4071,0.4157,0.423,0.424,0.4235,0.4195,0.4238,0.425,0.4224,0.437,0.4324,0.4341,0.4399,0.4546,0.4555,0.4563,0.4623,0.4641,0.4656,0,0,0,0,0,0,0.4043,0.4073,0.4056,0.4158,0.4192,0.4221,0.4274,0.4254,0.43,0.4292,0.4284,0.4293,0.4383,0.44,0.4348,0.4506,0.4451,0.4464,0.4491,0.4508,0.4522,0.4515,0.4293,0,0,0,0,0,0.4068,0.4125,0.4148,0.4236,0.4253,0.4261,0.4293,0.4285,0.4319,0.4333,0.4353,0.4387,0.444,0.4475,0.4526,0.4632,0.4638,0.468,0.4693,0.4704,0.4715,0.4769,0.4787,0.4595,0.4595,0.4595,0,0,0.4122,0.4145,0.4182,0.4249,0.4274,0.4331,0.4273,0.4338,0.438,0.4343,0.4426,0.4441,0.4479,0.4575,0.4618,0.4592,0.4769,0.4715,0.4723,0.4728,0.4779,0.4798,0.4814,0.4601,0.46,0.4599,0,0,0.4248,0.4272,0.4346,0.4372,0.441,0.4414,0.4432,0.4464,0.4472,0.4555,0.4528,0.4578,0.4671,0.4698,0.4723,0.4857,0.4834,0.4874,0.4944,0.4997,0.5012,0.5025,0.5071,0.5088,0.4885,0.4885,0.4885,0,0.431,0.4395,0.4387,0.4453,0.4482,0.4451,0.4525,0.455,0.4603,0.4624,0.4593,0.4706,0.473,0.483,0.4863,0.4886,0.4904,0.4869,0.5011,0.5024,0.5036,0.5079,0.5097,0.4889,0.4889,0.4888,0.4888,0,0.4468,0.4528,0.4583,0.4633,0.4669,0.4739,0.4741,0.4778,0.4767,0.4774,0.4857,0.4884,0.4938,0.4961,0.4952,0.506,0.5042,0.5012,0.4956,0.5059,0.5099,0.5116,0.4896,0.4894,0.4893,0.4892,0,0,0.4636,0.4679,0.4699,0.472,0.4759,0.4805,0.4873,0.4924,0.4955,0.4992,0.5048,0.5125,0.5096,0.5126,0.5119,0.5166,0.5267,0.5129,0.513,0.5152,0.5384,0.5406,0.5425,0.5252,0.5255,0.5258,0.538,0,0.4763,0.488,0.4874,0.4983,0.5037,0.5007,0.5065,0.5095,0.5103,0.515,0.5159,0.5213,0.5172,0.5189,0.5234,0.5245,0.5313,0.5236,0.5302,0.5304,0.5291,0.5447,0.547,0.5585,0.5396,0.5399,0.5401,0,0.4926,0.4967,0.5082,0.511,0.5132,0.5185,0.523,0.5276,0.5308,0.531,0.5342,0.5327,0.5394,0.5338,0.5429,0.5376,0.5403,0.5412,0.5416,0.5421,0.5358,0.5454,0.5622,0.5638,0.5426,0.5424,0.5422,0,0.5034,0.5118,0.5197,0.5216,0.5252,0.5289,0.5305,0.5334,0.5364,0.5404,0.5423,0.5471,0.5497,0.5533,0.5531,0.5491,0.5622,0.5567,0.5625,0.5625,0.5653,0.5651,0.5826,0.5674,0.5673,0.5673,0.5673,0,0.5175,0.5246,0.5245,0.5294,0.5371,0.5363,0.544,0.5453,0.5478,0.5527,0.5505,0.5552,0.5547,0.5593,0.5592,0.5666,0.5679,0.5681,0.568,0.5682,0.5682,0.5698,0.569,0.5677,0.5676,0.5676,0.5675,0,0.5309,0.5311,0.5395,0.542,0.5428,0.5484,0.5506,0.5551,0.5557,0.5619,0.5634,0.5642,0.5696,0.5697,0.576,0.5758,0.5848,0.5839,0.5837,0.5834,0.5891,0.5885,0.6082,0.6106,0.594,0.5941,0.5943,0,0.5398,0.5451,0.5482,0.5513,0.5531,0.5582,0.5612,0.5606,0.5638,0.5677,0.5718,0.5769,0.5809,0.5896,0.5908,0.5954,0.5945,0.601,0.5952,0.5951,0.5943,0.5939,0.5943,0.6021,0.6023,0.6025,0.6026,0,0.5554,0.5552,0.5597,0.5641,0.5678,0.5713,0.5746,0.5772,0.5769,0.5807,0.5861,0.5892,0.5954,0.6005,0.6049,0.6066,0.6045,0.6044,0.606,0.6062,0.6058,0.6058,0.5866,0.604,0.6038,0.6037,0.6036,0.6036,0.5666,0.5711,0.5739,0.5789,0.5812,0.5843,0.5885,0.5895,0.594,0.599,0.5983,0.6043,0.6071,0.6129,0.6149,0.6195,0.6172,0.6195,0.62,0.6206,0.621,0.6052,0.6203,0.6203,0.6202,0.6202,0.6202,0,0.5819,0.5835,0.5881,0.5926,0.5965,0.5942,0.5976,0.601,0.6062,0.6091,0.613,0.6191,0.6239,0.6254,0.63,0.6334,0.6325,0.6346,0.6343,0.6346,0.623,0.621,0.6352,0.6352,0.6352,0.6352,0.6352,0.6352,0.5904,0.5977,0.5979,0.6063,0.6079,0.6136,0.6157,0.6184,0.6206,0.6275,0.6315,0.6324,0.6346,0.6393,0.6436,0.6439,0.6456,0.648,0.6479,0.637,0.6355,0.634,0.6322,0.6485,0.6485,0.6592,0.6593,0.6593]}]]